MM0ZIF Weather Reports


time (UTC)temp
C
wind
direction
speed
KPH
gust
KPH
rain 1hr
cm
rain 24hr
cm
rain mn
cm
humidity
%
barometer
mb
20260507014506 5 89 1.6 3.2 0.00 0.30 0.00 94 1001.5
20260507014006 6 84 1.6 3.2 0.00 0.30 0.00 94 1001.8
20260507013506 6 107 1.6 4.8 0.00 0.30 0.00 94 1001.6
20260507013006 6 112 1.6 4.8 0.00 0.30 0.00 94 1002.0
20260507012505 6 135 1.6 3.2 0.00 0.30 0.00 94 1001.9
20260507012006 6 147 0.0 3.2 0.00 0.30 0.00 94 1002.0
20260507011505 6 114 1.6 4.8 0.00 0.30 0.00 94 1001.9
20260507010506 6 109 0.0 3.2 0.00 0.30 0.00 94 1002.1
20260507010006 6 115 1.6 3.2 0.00 0.30 0.00 93 1002.0
20260507005506 6 148 1.6 3.2 0.00 0.30 0.00 93 1002.1
20260507005006 6 144 0.0 8.0 0.00 0.30 0.00 93 1002.1
20260507004505 6 147 1.6 4.8 0.00 0.30 0.00 93 1002.1
20260507003505 6 172 1.6 4.8 0.00 0.30 0.00 93 1002.4
20260507003005 6 167 1.6 4.8 0.00 0.30 0.00 93 1002.3
20260507002506 6 98 0.0 3.2 0.00 0.30 0.00 93 1002.3
20260507002005 6 131 1.6 9.7 0.00 0.30 0.00 93 1002.4
20260507001505 6 115 1.6 9.7 0.00 0.30 0.00 94 1002.4
20260507001006 6 142 4.8 9.7 0.00 0.30 0.00 94 1002.5
20260507000505 6 173 1.6 8.0 0.00 0.30 0.00 94 1002.6
20260506235505 6 142 1.6 4.8 0.00 0.30 0.00 95 1002.8
20260506235005 6 144 1.6 8.0 0.00 0.30 0.00 95 1002.6
20260506234006 6 137 3.2 8.0 0.00 0.30 0.00 95 1003.1
20260506233506 6 171 1.6 3.2 0.03 0.30 0.00 95 1003.2
20260506233006 6 148 1.6 4.8 0.05 0.30 0.00 95 1002.9
20260506232505 6 128 3.2 8.0 0.10 0.30 0.00 95 1003.0
20260506232006 6 105 1.6 4.8 0.18 0.30 0.00 95 1002.8
20260506231506 6 99 1.6 4.8 0.20 0.30 0.00 95 1002.9
20260506230505 6 126 1.6 4.8 0.25 0.30 0.00 95 1003.0
20260506230005 6 125 1.6 4.8 0.25 0.30 0.00 95 1003.1
20260506225505 6 89 1.6 4.8 0.28 0.30 0.30 95 1003.1
20260506225005 6 136 1.6 4.8 0.28 0.30 0.30 94 1003.3
20260506224505 6 89 1.6 3.2 0.30 0.30 0.30 94 1003.4
20260506224006 6 117 1.6 8.0 0.30 0.30 0.30 93 1003.4
20260506223505 6 134 1.6 9.7 0.28 0.28 0.28 93 1003.3
20260506223005 6 115 0.0 4.8 0.28 0.28 0.28 91 1003.6
20260506221505 7 87 1.6 8.0 0.10 0.10 0.10 90 1003.3
20260506221005 7 90 3.2 8.0 0.08 0.08 0.08 90 1003.4
20260506220005 7 65 1.6 8.0 0.05 0.05 0.05 89 1003.5
20260506215006 7 73 3.2 9.7 0.03 0.03 0.03 87 1003.6
20260506214505 7 123 3.2 9.7 0.00 0.00 0.00 87 1003.6
20260506214005 7 84 4.8 12.9 0.00 0.00 0.00 86 1003.8
20260506213504 7 153 3.2 12.9 0.00 0.00 0.00 83 1003.7
20260506213005 7 86 3.2 11.3 0.00 0.00 0.00 82 1003.6
20260506212505 7 65 3.2 11.3 0.00 0.00 0.00 81 1003.8
20260506212004 7 101 3.2 9.7 0.00 0.00 0.00 80 1003.8
20260506211504 7 98 4.8 12.9 0.00 0.00 0.00 80 1003.8
20260506211006 8 101 3.2 11.3 0.00 0.00 0.00 80 1004.0
20260506210505 8 78 3.2 9.7 0.00 0.00 0.00 79 1003.9
20260506210005 8 91 4.8 9.7 0.00 0.00 0.00 77 1003.9
20260506205505 8 76 3.2 11.3 0.00 0.00 0.00 74 1003.8
20260506205005 8 99 6.4 12.9 0.00 0.00 0.00 72 1004.2
20260506204505 8 177 4.8 14.5 0.00 0.00 0.00 73 1004.1
20260506204005 8 66 4.8 11.3 0.00 0.00 0.00 74 1004.1
20260506203505 8 92 4.8 9.7 0.00 0.00 0.00 75 1004.1
20260506203004 7 123 3.2 11.3 0.00 0.00 0.00 76 1004.3
20260506202505 7 83 3.2 11.3 0.00 0.00 0.00 74 1004.3
20260506202004 7 95 3.2 9.7 0.00 0.00 0.00 74 1004.2
20260506201505 7 88 3.2 9.7 0.00 0.00 0.00 75 1004.4
20260506201005 7 119 3.2 8.0 0.00 0.00 0.00 74 1004.3
20260506200504 7 67 3.2 9.7 0.00 0.00 0.00 73 1004.3
20260506200005 7 112 1.6 8.0 0.00 0.00 0.00 72 1004.5
20260506195004 7 89 1.6 8.0 0.00 0.00 0.00 72 1004.2
20260506194505 7 104 3.2 9.7 0.00 0.00 0.00 72 1004.6
20260506194005 7 74 3.2 4.8 0.00 0.00 0.00 71 1004.8
20260506193504 7 91 3.2 8.0 0.00 0.00 0.00 71 1004.7
20260506193005 7 66 3.2 8.0 0.00 0.00 0.00 70 1004.8
20260506192505 7 90 1.6 4.8 0.00 0.00 0.00 70 1004.8
20260506192005 7 108 3.2 8.0 0.00 0.00 0.00 70 1004.9
20260506191504 7 83 4.8 8.0 0.00 0.00 0.00 69 1005.0
20260506191004 7 69 1.6 9.7 0.00 0.00 0.00 69 1004.9
20260506190504 7 94 3.2 8.0 0.00 0.00 0.00 69 1005.1
20260506190005 7 107 1.6 3.2 0.00 0.00 0.00 69 1005.1
20260506185505 7 139 1.6 4.8 0.00 0.00 0.00 67 1005.2
20260506185004 7 62 1.6 8.0 0.00 0.00 0.00 67 1005.2
20260506184504 7 92 1.6 8.0 0.00 0.00 0.00 67 1005.4
20260506184004 7 88 3.2 8.0 0.00 0.00 0.00 67 1005.4
20260506183505 7 87 3.2 8.0 0.00 0.00 0.00 67 1005.5
20260506182504 7 69 4.8 9.7 0.00 0.00 0.00 66 1005.5
20260506182004 7 74 1.6 4.8 0.00 0.00 0.00 68 1005.6
20260506181004 7 96 4.8 9.7 0.00 0.00 0.00 68 1005.3
20260506180504 7 72 3.2 9.7 0.00 0.00 0.00 69 1005.4
20260506180005 7 67 3.2 9.7 0.00 0.00 0.00 71 1005.3
20260506175504 7 102 3.2 12.9 0.00 0.00 0.00 72 1005.3
20260506174504 7 66 3.2 8.0 0.00 0.00 0.00 72 1005.5
20260506173503 7 85 3.2 11.3 0.00 0.00 0.00 73 1005.6
20260506173004 7 70 3.2 9.7 0.00 0.00 0.00 73 1005.6
20260506172004 8 58 3.2 12.9 0.00 0.00 0.00 73 1005.6
20260506171504 8 71 4.8 12.9 0.00 0.00 0.00 73 1005.7
20260506171004 8 70 4.8 11.3 0.00 0.00 0.00 72 1005.6
20260506170504 8 71 4.8 9.7 0.00 0.00 0.00 72 1005.8
20260506170004 8 98 4.8 12.9 0.00 0.00 0.00 71 1005.7
20260506165504 8 115 4.8 11.3 0.00 0.00 0.00 70 1005.8
20260506165004 8 58 4.8 11.3 0.00 0.00 0.00 70 1005.9
20260506164510 8 81 4.8 12.9 0.00 0.00 0.00 69 1005.9
20260506164010 8 92 4.8 11.3 0.00 0.00 0.00 69 1005.9
20260506163509 8 67 4.8 14.5 0.00 0.00 0.00 67 1006.0
20260506163009 8 89 4.8 11.3 0.00 0.00 0.00 67 1006.0
20260506162509 8 70 4.8 12.9 0.00 0.00 0.00 66 1005.9
20260506162009 8 99 4.8 12.9 0.00 0.00 0.00 66 1006.1
20260506161509 8 81 6.4 12.9 0.00 0.00 0.00 66 1006.2
20260506161009 8 89 4.8 14.5 0.00 0.00 0.00 66 1006.2
20260506160509 8 53 4.8 12.9 0.00 0.00 0.00 66 1006.3
20260506160009 8 102 6.4 12.9 0.00 0.00 0.00 64 1006.3
20260506155509 8 127 4.8 12.9 0.00 0.00 0.00 65 1006.4
20260506154508 8 73 4.8 11.3 0.00 0.00 0.00 63 1006.5
20260506153509 8 98 4.8 14.5 0.00 0.00 0.00 62 1006.4
20260506153009 8 102 8.0 14.5 0.00 0.00 0.00 61 1006.4
20260506152509 8 91 6.4 11.3 0.00 0.00 0.00 60 1006.5
20260506152009 8 31 4.8 12.9 0.00 0.00 0.00 61 1006.6
20260506151509 8 80 6.4 12.9 0.00 0.00 0.00 61 1006.7
20260506151010 8 80 6.4 16.1 0.00 0.00 0.00 61 1006.8
20260506150509 9 87 8.0 16.1 0.00 0.00 0.00 60 1006.7
20260506150009 8 75 6.4 16.1 0.00 0.00 0.00 60 1006.6
20260506145509 8 74 6.4 12.9 0.00 0.00 0.00 60 1006.9
20260506145009 8 83 8.0 16.1 0.00 0.00 0.00 59 1006.7
20260506144509 9 76 6.4 16.1 0.00 0.00 0.00 58 1006.8
20260506143509 8 76 6.4 14.5 0.00 0.00 0.00 58 1007.0
20260506143009 9 138 4.8 14.5 0.00 0.00 0.00 56 1007.0
20260506142509 10 124 4.8 12.9 0.00 0.00 0.00 55 1007.1
20260506142009 10 85 6.4 11.3 0.00 0.00 0.00 54 1007.1
20260506141509 10 130 4.8 12.9 0.00 0.00 0.00 53 1007.2
20260506140509 9 68 8.0 14.5 0.00 0.00 0.00 53 1007.5
20260506135509 9 84 8.0 12.9 0.00 0.00 0.00 55 1007.4
20260506135008 10 88 6.4 14.5 0.00 0.00 0.00 56 1007.3
20260506134508 10 63 6.4 14.5 0.00 0.00 0.00 56 1007.5
20260506134008 10 75 4.8 9.7 0.00 0.00 0.00 55 1007.5
20260506133508 10 70 3.2 16.1 0.00 0.00 0.00 53 1007.3
20260506133009 9 65 6.4 12.9 0.00 0.00 0.00 55 1007.6
20260506132509 9 95 8.0 12.9 0.00 0.00 0.00 56 1007.8
20260506132009 9 61 4.8 12.9 0.00 0.00 0.00 55 1007.7
20260506131508 8 101 8.0 12.9 0.00 0.00 0.00 57 1007.5
20260506131008 8 76 8.0 12.9 0.00 0.00 0.00 58 1007.7
20260506130508 9 105 8.0 12.9 0.00 0.00 0.00 57 1007.8
20260506130009 9 89 4.8 11.3 0.00 0.00 0.00 56 1007.9
20260506125509 9 68 6.4 11.3 0.00 0.00 0.00 56 1007.7
20260506124508 9 113 4.8 12.9 0.00 0.00 0.00 59 1007.7
20260506124009 9 134 4.8 14.5 0.00 0.00 0.00 55 1007.9
20260506123508 9 75 4.8 12.9 0.00 0.00 0.00 58 1007.9
20260506123008 8 127 6.4 14.5 0.00 0.00 0.00 61 1008.1
20260506122508 8 104 8.0 16.1 0.00 0.00 0.00 60 1008.0
20260506122008 8 69 4.8 14.5 0.00 0.00 0.00 60 1008.1
20260506121509 8 92 4.8 12.9 0.00 0.00 0.00 61 1008.0
20260506121009 8 139 8.0 19.3 0.00 0.00 0.00 62 1008.2
20260506120508 8 105 6.4 14.5 0.00 0.00 0.00 60 1008.5
20260506115009 8 137 4.8 14.5 0.00 0.00 0.00 60 1008.4
20260506114508 8 76 4.8 11.3 0.00 0.00 0.00 62 1008.3
20260506114009 8 80 4.8 14.5 0.00 0.00 0.00 63 1008.4
20260506113508 9 76 8.0 14.5 0.00 0.00 0.00 62 1008.5
20260506113008 8 93 4.8 11.3 0.00 0.00 0.00 63 1008.5
20260506112009 8 126 6.4 14.5 0.00 0.00 0.00 66 1008.4
20260506111508 7 64 4.8 16.1 0.00 0.00 0.00 67 1008.4
20260506111008 8 85 4.8 16.1 0.00 0.00 0.00 65 1008.6
20260506110508 8 134 4.8 12.9 0.00 0.00 0.00 65 1008.6
20260506105508 8 51 4.8 11.3 0.00 0.00 0.00 66 1008.6
20260506105007 8 81 4.8 11.3 0.00 0.00 0.00 66 1008.7
20260506104008 8 67 4.8 11.3 0.00 0.00 0.00 66 1008.8
20260506103508 8 51 4.8 11.3 0.00 0.00 0.00 67 1008.8
20260506103008 8 78 3.2 8.0 0.00 0.00 0.00 65 1008.8
20260506102508 8 64 3.2 11.3 0.00 0.00 0.00 67 1009.0
20260506102008 8 93 3.2 11.3 0.00 0.00 0.00 65 1008.8
20260506101507 7 97 4.8 9.7 0.00 0.00 0.00 68 1008.8
20260506100508 7 113 3.2 8.0 0.00 0.00 0.00 69 1008.7
20260506100008 7 72 4.8 9.7 0.00 0.00 0.00 70 1008.9
20260506095507 7 99 4.8 11.3 0.00 0.00 0.00 71 1008.8
20260506095008 7 96 4.8 8.0 0.00 0.00 0.00 70 1009.1
20260506094508 7 110 3.2 9.7 0.00 0.00 0.00 69 1009.0
20260506094008 8 133 3.2 9.7 0.00 0.00 0.00 66 1009.0
20260506093008 8 71 0.0 1.6 0.00 0.00 0.00 57 1009.0
20260506092507 8 101 1.6 3.2 0.00 0.00 0.00 59 1009.2
20260506092007 8 46 0.0 1.6 0.00 0.00 0.00 61 1009.0
20260506091507 7 332 1.6 3.2 0.00 0.00 0.00 61 1009.1
20260506091007 8 76 1.6 3.2 0.00 0.00 0.00 65 1009.0
20260506090007 8 93 1.6 3.2 0.00 0.00 0.00 64 1009.1
20260506085507 8 61 0.0 1.6 0.00 0.00 0.00 68 1009.3
20260506084508 7 121 1.6 3.2 0.00 0.00 0.00 69 1009.6
20260506084008 7 147 0.0 1.6 0.00 0.00 0.00 71 1009.5
20260506083507 7 116 0.0 3.2 0.00 0.00 0.00 71 1009.3
20260506083008 7 56 0.0 1.6 0.00 0.00 0.00 72 1009.5
20260506082508 7 297 0.0 1.6 0.00 0.00 0.00 73 1009.5
20260506081508 7 325 0.0 3.2 0.00 0.00 0.00 72 1009.4
20260506081007 7 75 0.0 3.2 0.00 0.00 0.00 73 1009.3
20260506080508 7 138 0.0 1.6 0.00 0.00 0.00 72 1009.5
20260506073507 7 98 0.0 3.2 0.00 0.00 0.00 76 1009.5
20260506072507 7 140 0.0 1.6 0.00 0.00 0.00 77 1009.6
20260506072007 6 50 0.0 3.2 0.00 0.00 0.00 79 1009.6
20260506070507 6 231 0.0 1.6 0.00 0.00 0.00 80 1009.6
20260506062507 5 156 1.6 3.2 0.00 0.00 0.00 84 1009.6
20260506062007 4 157 0.0 1.6 0.00 0.00 0.00 84 1009.6
20260506061507 4 124 0.0 3.2 0.00 0.00 0.00 84 1009.7
20260506061007 4 148 0.0 1.6 0.00 0.00 0.00 85 1009.6
20260506051007 1 121 0.0 0.0 0.00 0.00 0.00 94 1010.0
20260506050507 1 85 0.0 0.0 0.00 0.00 0.00 94 1010.2
20260506045007 0 126 0.0 0.0 0.00 0.00 0.00 94 1010.1
20260506044507 0 138 0.0 0.0 0.00 0.00 0.00 94 1010.3
20260506043508 0 126 0.0 0.0 0.00 0.00 0.00 94 1010.3
20260506043006 0 129 0.0 1.6 0.00 0.00 0.00 94 1010.3
20260506042506 0 145 0.0 1.6 0.00 0.00 0.00 94 1010.4
20260506042006 0 124 0.0 1.6 0.00 0.00 0.00 94 1010.3
20260506041507 0 116 0.0 1.6 0.00 0.00 0.00 94 1010.4
20260506041006 0 68 0.0 1.6 0.00 0.00 0.00 94 1010.4
20260506040506 0 86 0.0 1.6 0.00 0.00 0.00 94 1010.4
20260506040006 0 71 0.0 1.6 0.00 0.00 0.00 94 1010.5
20260506035506 0 129 0.0 0.0 0.00 0.00 0.00 94 1010.6
20260506034506 0 108 0.0 0.0 0.00 0.00 0.00 94 1010.5
20260506033506 0 128 0.0 0.0 0.00 0.00 0.00 94 1010.6
20260506033006 0 128 0.0 0.0 0.00 0.03 0.00 94 1010.7
20260506032506 0 79 0.0 0.0 0.00 0.03 0.00 94 1010.8
20260506031506 0 160 0.0 1.6 0.00 0.03 0.00 94 1010.8
20260506030506 0 162 0.0 1.6 0.00 0.03 0.00 94 1010.9
20260506030006 0 118 0.0 0.0 0.00 0.03 0.00 94 1010.9
20260506025006 0 131 0.0 0.0 0.00 0.03 0.00 94 1010.8
20260506024507 0 146 0.0 0.0 0.00 0.03 0.00 94 1010.7
20260506024007 0 143 0.0 0.0 0.00 0.03 0.00 94 1011.0
20260506023506 0 122 0.0 0.0 0.00 0.03 0.00 94 1010.9
20260506023006 0 86 0.0 0.0 0.00 0.03 0.00 93 1010.8
20260506022506 0 85 0.0 0.0 0.00 0.03 0.00 93 1010.9
20260506022006 0 85 0.0 0.0 0.00 0.03 0.00 93 1011.0
20260506021506 0 81 0.0 0.0 0.00 0.03 0.00 93 1011.0
20260506021006 0 208 0.0 0.0 0.00 0.03 0.00 93 1011.1
20260506015506 0 156 0.0 0.0 0.00 0.03 0.00 92 1011.1